Weather History for KNQX - October, 2011

Change the Weather History Date:

Friday, October 7, 2011

  Actual Average Record
Temperature  
Mean Temperature 81 °F -  
Max Temperature 87 °F 86 °F 90 °F (1962)
Min Temperature 78 °F 77 °F 70 °F (1987)
Cooling Degree Days 16    
Growing Degree Days 31 (Base 50)    
Moisture  
Dew Point 71 °F    
Average Humidity 72    
Maximum Humidity 79    
Minimum Humidity 61    
Precipitation  
Precipitation 0.00 in - - ()
Sea Level Pressure  
Sea Level Pressure 29.97 in    
Wind  
Wind Speed 11 mph (ENE)    
Max Wind Speed 24 mph    
Max Gust Speed 34 mph    
Visibility 10 miles    
Events Rain , Thunderstorm    
Averages and records for this station are not official NWS values.
T = Trace of Precipitation, MM = Missing Value Source: NWS Daily Summary

Daily Weather History Graph

Daily Weather History Graph

Search for Another Location

Airport or City:

Trip Planner

Search our weather history database for the weather conditions in past years. The results will help you decide how hot, cold, wet, or windy it might be!

Date:

Astronomy

Oct. 07, 2011 Rise Set
Actual Time 7:21 AM EDT 7:07 PM EDT
Civil Twilight 6:58 AM EDT 7:30 PM EDT
Nautical Twilight 6:31 AM EDT 7:57 PM EDT
Astronomical Twilight 6:05 AM EDT 8:23 PM EDT
Moon 4:29 PM EDT (10/7) 3:32 AM EDT (10/7)
Length of Visible Light 12h 32m
Length of Day
11h 46m
Waxing Gibbous, 83% of the Moon is Illuminated
Oct 7
Waxing Gibbous
Oct 11
Full
Oct 19
Last Quarter
Oct 26
New
Nov 2
First Quarter

Hourly Weather History & Observations

Time (EDT) Temp. Heat Index Dew Point Humidity Pressure Visibility Wind Dir Wind Speed Gust Speed Precip Events Conditions
12:53 AM 80.1 °F 83.6 °F 71.1 °F 74% 29.99 in 10.0 mi ENE 11.5 mph - N/A   Clear
1:53 AM 80.1 °F 83.6 °F 71.1 °F 74% 29.99 in 10.0 mi East 12.7 mph 19.6 mph N/A   Clear
2:53 AM 79.0 °F - 69.1 °F 72% 29.96 in 10.0 mi ENE 5.8 mph - N/A   Clear
3:53 AM 79.0 °F - 71.1 °F 77% 29.95 in 10.0 mi NE 4.6 mph - N/A   Clear
4:53 AM 80.1 °F 83.6 °F 71.1 °F 74% 29.94 in 10.0 mi NE 9.2 mph - N/A   Clear
5:53 AM 79.0 °F - 72.0 °F 79% 29.96 in 10.0 mi NE 10.4 mph - N/A   Clear
6:06 AM 78.8 °F - 71.6 °F 78% 29.96 in 10.0 mi NE 9.2 mph - N/A   Mostly Cloudy
6:14 AM 78.8 °F - 71.6 °F 78% 29.96 in 10.0 mi NE 6.9 mph - N/A Thunderstorm Thunderstorm
6:53 AM 79.0 °F - 72.0 °F 79% 29.98 in 10.0 mi NE 8.1 mph - N/A   Mostly Cloudy
7:53 AM 80.1 °F 83.8 °F 72.0 °F 76% 29.99 in 10.0 mi NE 11.5 mph 18.4 mph N/A   Mostly Cloudy
8:53 AM 81.0 °F 85.2 °F 72.0 °F 74% 29.99 in 10.0 mi NE 12.7 mph 20.7 mph N/A   Mostly Cloudy
9:53 AM 80.1 °F 82.9 °F 69.1 °F 69% 30.00 in 10.0 mi ENE 10.4 mph - N/A   Mostly Cloudy
10:53 AM 82.0 °F 86.7 °F 72.0 °F 71% 30.01 in 10.0 mi NE 10.4 mph - N/A   Mostly Cloudy
11:53 AM 84.0 °F 89.6 °F 72.0 °F 67% 30.01 in 10.0 mi ENE 12.7 mph 18.4 mph N/A   Mostly Cloudy
12:53 PM 84.9 °F 90.7 °F 72.0 °F 65% 30.00 in 10.0 mi ENE 12.7 mph - N/A   Mostly Cloudy
1:53 PM 82.0 °F 85.9 °F 70.0 °F 67% 29.99 in 10.0 mi East 19.6 mph 29.9 mph N/A   Mostly Cloudy
2:03 PM 80.6 °F 83.9 °F 69.8 °F 70% 29.99 in 9.0 mi ESE 24.2 mph 34.5 mph 0.00 in Rain Light Rain
2:26 PM 78.8 °F - 68.0 °F 69% 29.97 in 10.0 mi East 18.4 mph 28.8 mph 0.00 in   Mostly Cloudy
2:53 PM 82.9 °F 87.5 °F 71.1 °F 67% 29.96 in 10.0 mi East 9.2 mph - 0.00 in   Mostly Cloudy
3:53 PM 84.9 °F 89.4 °F 70.0 °F 61% 29.95 in 10.0 mi East 13.8 mph - N/A   Mostly Cloudy
4:53 PM 84.9 °F 90.1 °F 71.1 °F 63% 29.94 in 10.0 mi East 12.7 mph 21.9 mph N/A   Mostly Cloudy
5:53 PM 84.0 °F 89.0 °F 71.1 °F 65% 29.95 in 10.0 mi ENE 15.0 mph 21.9 mph N/A   Mostly Cloudy
6:53 PM 82.9 °F 87.5 °F 71.1 °F 67% 29.95 in 10.0 mi ENE 11.5 mph 18.4 mph N/A   Mostly Cloudy
7:53 PM 82.0 °F 86.3 °F 71.1 °F 69% 29.95 in 10.0 mi ENE 9.2 mph - N/A   Mostly Cloudy
8:53 PM 81.0 °F 85.2 °F 72.0 °F 74% 29.97 in 10.0 mi ENE 12.7 mph - N/A   Mostly Cloudy
10:53 PM 81.0 °F 85.2 °F 72.0 °F 74% 29.97 in 10.0 mi NE 6.9 mph - N/A   Clear
11:53 PM 80.1 °F 84.2 °F 73.0 °F 79% 29.96 in 10.0 mi NE 8.1 mph 16.1 mph N/A   Clear